CAPE
0 0 46 11 0 0 0 0 0 0 0 0 62 398 573 611 479 295 347 1108 1582 2052 2456 1875 1524 1298 1241 1119 1054 875 538 417 144 34 14 7 7 3 0 0 1 1 0
34 0 119 29 0 0 0 0 0 1 1 21 213 462 426 395 386 474 147 316 925 1488 2039 2202 1846 1435 1388 1121 1009 792 576 522 135 38 4 4 2 1 1 0 0 0 0
136 45 148 102 3 0 0 0 1 6 31 189 341 467 312 328 352 346 438 138 288 783 1147 1614 1631 1711 1750 1157 945 629 645 372 73 13 7 2 1 2 0 0 0 0 0
266 221 143 161 58 34 9 19 106 293 484 321 274 395 377 298 301 192 437 520 234 324 429 780 1178 1403 1462 1517 1040 656 385 137 21 9 3 2 2 1 0 0 0 0 0
300 795 516 230 260 161 294 303 278 465 453 333 311 193 202 238 180 264 359 282 505 373 307 399 710 981 908 1120 1177 775 566 108 13 7 3 3 2 0 0 0 0 0 1
464 907 692 636 715 601 515 295 289 255 314 247 309 216 142 43 11 62 113 170 162 335 325 173 87 102 375 679 861 975 724 216 17 9 7 3 1 0 1 0 2 2 1
712 638 970 840 925 809 684 324 279 338 388 175 140 1 0 0 0 0 0 0 0 0 0 14 0 0 0 237 450 762 741 248 18 13 11 6 3 2 5 6 4 1 0
1000 777 915 975 750 574 484 454 449 401 307 54 26 0 60 2 0 0 0 0 0 0 0 0 1 0 0 14 88 284 619 260 20 10 9 7 8 17 9 4 0 1 0
1123 1031 823 878 627 465 451 330 388 416 403 122 0 10 1 42 0 0 0 0 0 0 0 0 0 0 0 0 0 0 7 0 19 13 13 12 16 17 9 1 1 0 5
1001 957 915 798 663 471 449 499 320 281 164 229 0 0 0 0 0 0 0 0 0 0 0 0 0 0 0 0 0 0 0 0 0 25 15 20 25 22 7 25 9 26 40
843 437 402 412 644 701 510 587 547 489 110 3 0 1 0 0 0 0 0 0 0 0 0 0 0 0 0 0 0 0 0 0 0 7 21 40 45 40 35 22 34 34 21
142 172 155 200 241 507 514 474 521 525 263 7 0 0 0 0 0 0 0 0 0 0 0 0 0 0 0 0 0 0 0 0 0 0 11 50 45 35 41 34 33 20 5
1 73 115 97 178 141 112 98 155 218 186 37 0 0 0 0 0 0 0 0 0 0 0 0 0 0 0 0 0 0 0 0 0 0 3 26 24 34 27 18 18 14 9
0 1 4 2 2 1 1 0 0 1 0 1 1 1 0 0 0 0 0 0 0 0 0 0 0 0 0 0 0 0 0 1 0 0 0 1 11 8 14 11 5 4 5
0 1 0 0 1 0 0 0 0 0 0 0 0 0 0 0 0 0 0 0 0 0 0 0 0 0 0 0 0 0 0 0 0 1 0 0 5 6 3 3 3 2 2
0 0 0 0 1 0 0 0 0 0 0 0 0 0 0 0 0 0 0 0 0 0 0 0 0 0 0 0 0 0 0 0 0 0 0 0 3 6 3 2 1 1 0
1 1 0 0 0 0 0 0 0 0 0 0 0 0 0 0 0 0 0 0 0 0 0 0 0 0 0 0 0 0 1 0 0 0 0 0 0 3 2 0 0 0 0
0 0 0 0 0 0 0 0 0 0 0 0 0 0 0 0 0 0 0 0 0 0 0 0 0 0 0 0 0 0 0 0 0 1 1 2 3 2 0 0 2 0 0
0 0 0 0 0 0 0 0 0 0 0 0 0 0 0 0 0 0 0 0 0 0 0 0 0 0 0 0 0 0 0 0 0 6 2 3 3 1 1 0 0 0 0
0 0 0 0 0 0 0 0 0 0 0 0 0 0 0 0 0 0 0 0 0 0 0 0 0 0 0 0 0 0 0 0 0 1 3 1 2 3 3 1 1 0 0
0 0 0 0 0 0 0 0 0 0 0 0 0 0 0 0 0 0 0 0 0 0 0 0 0 0 0 0 0 0 0 0 0 0 0 0 1 2 1 2 0 1 1
0 0 0 0 0 0 0 0 0 0 0 0 0 0 0 0 0 0 0 0 0 0 0 0 0 0 0 0 0 0 0 0 0 0 0 0 0 0 0 0 1 1 1
0 0 0 0 0 0 0 0 0 0 0 0 0 0 0 0 0 0 0 0 0 1 0 0 0 0 0 0 0 0 0 0 0 0 0 0 0 0 0 0 3 2 1
0 0 0 0 0 0 0 0 0 0 0 0 0 0 0 0 0 0 0 1 0 0 1 0 0 0 0 0 0 0 0 0 0 0 0 0 0 0 0 0 3 3 1
0 0 0 0 0 0 0 0 0 0 0 0 0 1 1 0 0 0 1 1 0 0 0 0 0 0 0 0 0 0 0 0 0 0 0 0 0 0 0 0 0 2 1
0 0 0 0 0 4 1 0 0 1 1 1 0 0 0 1 0 0 1 1 0 0 0 0 0 0 0 0 0 0 0 0 0 0 0 0 0 0 0 0 0 0 0
CIN
-0 -0 -458 -414 -0 -0 -0 -0 -0 -0 -0 -0 -336 -165 -119 -101 -153 -278 -286 -101 -53 -26 -1 -18 -47 -9 -0 -0 -0 -4 -18 -21 -83 -191 -246 -0 -0 -0 -1 -1 -0 -0 -0
-416 -0 -359 -496 -0 -0 -0 -0 -0 -392 -348 -423 -211 -111 -111 -112 -128 -171 -288 -222 -93 -37 -2 -2 -7 -4 -1 -0 -0 -6 -24 -9 -146 -262 -0 -0 -0 -0 -0 -0 -0 -0 -0
-291 -350 -336 -368 -502 -0 -0 -0 -70 -89 -418 -279 -153 -138 -163 -130 -140 -159 -187 -321 -214 -95 -45 -6 -10 -1 -0 -0 -6 -26 -23 -77 -206 -307 -0 -0 -0 -0 -0 -0 -0 -0 -0
-222 -235 -277 -325 -393 -457 -436 -466 -325 -218 -193 -210 -187 -163 -166 -176 -149 -170 -149 -140 -259 -216 -168 -59 -14 -3 -2 -0 -0 -5 -22 -118 -289 -0 -0 -0 -0 -0 -0 -0 -0 -0 -0
-212 -135 -136 -189 -219 -267 -238 -211 -193 -130 -128 -164 -154 -183 -211 -181 -194 -143 -87 -142 -148 -197 -208 -153 -60 -12 -9 -4 -0 -0 -2 -107 -0 -0 -0 -0 -0 -0 -0 -0 -0 -0 -0
-193 -115 -146 -118 -95 -95 -110 -155 -146 -165 -128 -142 -102 -197 -280 -401 -477 -344 -273 -214 -244 -174 -186 -227 -289 -270 -81 -7 -1 -0 -4 -111 -253 -0 -0 -0 -0 -0 -0 -0 -0 -0 -0
-177 -147 -125 -101 -123 -101 -104 -159 -163 -127 -130 -216 -235 -366 -0 -0 -0 -0 -0 -2 -1 -0 -1 -332 -0 -0 -0 -72 -22 -2 -0 -44 -62 -0 -0 -0 -0 -0 -0 -0 -0 -0 -0
-146 -134 -137 -114 -124 -127 -153 -198 -163 -127 -122 -283 -352 -0 -199 -19 -0 -0 -0 -0 -0 -0 -0 -0 -0 -0 -0 -255 -129 -54 -12 -55 -6 -0 -0 -0 -0 -0 -0 -0 -0 -0 -0
-108 -93 -164 -147 -166 -169 -161 -181 -170 -139 -105 -202 -0 -85 -0 -145 -0 -0 -0 -0 -0 -0 -0 -0 -0 -0 -0 -0 -0 -0 -70 -0 -20 -0 -0 -0 -0 -0 -0 -0 -0 -0 -0
-136 -140 -144 -162 -165 -212 -186 -147 -172 -177 -178 -121 -0 -0 -0 -0 -0 -0 -0 -0 -0 -0 -0 -0 -0 -0 -0 -0 -0 -0 -0 -0 -0 -0 -0 -0 -0 -0 -0 -0 -0 -0 -0
-132 -224 -238 -210 -172 -165 -189 -134 -117 -117 -219 -91 -0 -0 -0 -0 -0 -0 -0 -0 -0 -0 -0 -0 -0 -0 -0 -0 -0 -0 -0 -0 -0 -0 -0 -0 -0 -0 -0 -0 -0 -0 -0
-260 -265 -247 -229 -185 -142 -131 -135 -102 -99 -145 -250 -0 -0 -0 -0 -0 -0 -0 -0 -0 -0 -0 -0 -0 -0 -0 -0 -0 -0 -0 -0 -0 -0 -0 -0 -0 -0 -0 -0 -0 -0 -0
-107 -253 -226 -205 -176 -206 -195 -190 -137 -109 -118 -171 -0 -0 -0 -0 -0 -0 -0 -0 -0 -0 -0 -0 -0 -0 -0 -0 -0 -0 -0 -0 -0 -0 -0 -0 -0 -0 -0 -0 -0 -0 -0
-0 -0 -32 -33 -34 -0 -0 -0 -0 -0 -0 -0 -0 -0 -0 -0 -0 -0 -0 -0 -0 -0 -0 -0 -0 -0 -0 -0 -0 -0 -0 -0 -0 -0 -0 -0 -0 -0 -0 -0 -0 -0 -0
-0 -0 -0 -0 -0 -0 -0 -0 -0 -0 -0 -0 -0 -0 -0 -0 -0 -0 -0 -0 -0 -0 -1 -0 -0 -0 -0 -0 -0 -0 -0 -0 -0 -0 -0 -0 -0 -0 -0 -0 -0 -0 -0
-0 -0 -0 -0 -0 -0 -0 -0 -0 -0 -0 -0 -0 -0 -0 -0 -0 -0 -0 -0 -0 -0 -0 -0 -0 -0 -0 -0 -0 -0 -0 -0 -0 -0 -0 -0 -0 -0 -0 -0 -0 -0 -0
-0 -0 -0 -0 -0 -0 -0 -0 -0 -0 -0 -0 -0 -0 -0 -0 -0 -0 -0 -0 -0 -0 -0 -0 -0 -0 -0 -0 -0 -0 -0 -0 -0 -0 -0 -0 -0 -0 -0 -0 -0 -0 -0
-0 -0 -0 -0 -0 -0 -0 -0 -0 -0 -0 -0 -0 -0 -0 -0 -9 -0 -0 -0 -0 -0 -0 -0 -0 -0 -0 -0 -0 -0 -0 -0 -0 -0 -0 -0 -0 -0 -0 -0 -0 -0 -0
-0 -0 -0 -0 -0 -0 -0 -0 -0 -0 -0 -0 -0 -0 -0 -0 -0 -0 -0 -0 -0 -0 -0 -0 -0 -0 -0 -0 -0 -0 -0 -0 -0 -0 -0 -0 -0 -0 -0 -0 -0 -0 -0
-0 -0 -0 -0 -0 -0 -0 -0 -0 -0 -0 -0 -0 -0 -0 -0 -0 -0 -0 -0 -0 -0 -0 -0 -0 -0 -0 -0 -0 -0 -0 -0 -0 -0 -0 -0 -0 -0 -0 -0 -0 -0 -0
-0 -0 -0 -0 -0 -0 -0 -0 -0 -0 -0 -0 -0 -0 -0 -0 -0 -0 -0 -0 -0 -0 -0 -0 -0 -0 -0 -0 -0 -0 -0 -0 -0 -0 -0 -0 -0 -0 -0 -0 -0 -0 -0
-0 -0 -0 -0 -0 -0 -0 -0 -0 -0 -0 -0 -0 -0 -0 -0 -0 -0 -0 -0 -0 -0 -0 -0 -0 -0 -0 -0 -0 -0 -0 -0 -0 -0 -0 -0 -0 -0 -0 -0 -0 -0 -0
-0 -0 -0 -0 -0 -0 -0 -0 -0 -0 -0 -0 -0 -0 -0 -0 -0 -0 -0 -0 -0 -0 -0 -0 -0 -0 -0 -0 -0 -0 -0 -0 -0 -0 -0 -0 -0 -0 -0 -0 -0 -0 -0
-0 -0 -0 -0 -0 -0 -0 -0 -0 -0 -0 -0 -0 -0 -0 -0 -0 -0 -0 -0 -0 -0 -0 -0 -0 -0 -0 -0 -0 -0 -0 -0 -0 -0 -0 -0 -0 -0 -0 -0 -0 -0 -0
-0 -0 -0 -0 -0 -0 -0 -0 -0 -0 -0 -0 -0 -0 -0 -0 -0 -0 -0 -0 -0 -0 -0 -0 -0 -0 -0 -0 -0 -0 -0 -0 -0 -0 -0 -0 -0 -0 -0 -0 -0 -0 -0
-0 -0 -0 -0 -0 -6 -0 -0 -0 -0 -0 -0 -0 -0 -0 -0 -0 -0 -0 -0 -0 -0 -0 -0 -0 -0 -0 -0 -0 -0 -0 -0 -0 -0 -0 -0 -0 -0 -0 -0 -0 -0 -0
Wind_Speed
7 6 7 7 6 6 5 5 5 5 6 6 5 6 3 1 4 3 3 11 10 10 13 15 16 13 12 11 11 11 11 11 11 10 9 9 9 8 9 8 7 5 4
6 8 8 8 7 7 6 6 7 6 5 5 5 4 3 1 3 5 4 4 7 7 8 11 12 14 15 14 12 14 13 13 12 12 12 11 11 10 8 7 6 5 6
7 10 8 8 8 7 9 7 7 4 5 5 7 5 5 5 4 2 5 4 5 8 8 9 12 14 15 15 15 14 14 14 13 13 12 10 9 8 8 8 7 6 5
9 9 9 9 9 8 8 6 5 6 7 5 3 4 5 5 6 5 4 4 4 4 6 8 9 10 11 15 16 16 14 13 13 14 12 10 9 8 7 8 8 8 6
14 8 9 8 9 8 8 8 4 3 4 4 4 5 5 5 5 3 5 4 6 5 4 7 10 11 12 14 17 19 17 16 15 14 12 11 9 9 10 12 12 13 13
14 9 7 9 8 7 7 5 5 3 3 5 3 3 1 3 2 2 2 2 1 4 5 5 4 5 11 12 16 18 20 20 20 19 17 16 16 16 14 12 12 12 10
16 13 7 6 5 8 9 10 5 6 5 4 4 2 2 2 2 1 1 0 3 3 4 2 3 3 4 12 15 18 20 21 19 17 17 17 17 15 13 13 12 10 9
15 13 9 7 7 5 6 8 7 4 2 4 4 3 1 3 2 3 1 1 1 1 2 3 4 4 5 6 10 19 20 23 22 21 21 19 18 15 13 11 12 11 7
13 14 9 9 8 7 6 5 6 7 5 3 5 5 2 5 1 2 2 2 3 2 3 4 4 4 4 6 9 14 17 18 20 23 22 21 21 18 16 14 10 7 7
13 14 11 8 9 6 8 6 5 4 5 4 1 2 3 4 4 2 2 2 3 4 5 4 4 4 5 4 6 8 14 17 16 20 24 21 21 20 16 12 15 14 16
9 10 9 7 7 7 7 8 7 6 4 4 4 2 1 2 2 2 3 3 2 4 4 5 4 4 4 4 4 4 4 4 7 12 17 20 21 19 19 17 13 14 15
6 6 7 8 6 6 8 6 5 7 6 4 4 4 4 3 3 3 4 4 3 2 3 4 4 4 3 3 5 8 12 11 12 14 17 18 22 22 18 17 14 12 11
3 7 7 5 5 4 4 5 5 4 5 5 6 4 3 3 3 3 3 2 4 2 3 3 4 4 4 3 4 9 14 16 16 17 16 21 23 23 21 17 15 12 10
6 7 6 5 6 5 5 5 4 3 4 4 5 3 3 3 4 4 4 4 2 3 2 6 2 4 3 2 3 9 6 17 18 18 15 21 23 23 20 16 12 11 11
8 9 9 9 7 7 7 6 4 5 4 4 4 5 3 3 3 4 3 4 3 3 4 3 1 2 2 2 3 3 3 13 16 16 17 22 21 23 22 20 14 10 11
8 9 9 8 8 7 7 6 5 5 6 3 4 5 3 2 3 3 3 3 3 4 4 2 3 2 2 2 5 6 5 11 15 19 20 21 20 20 21 17 14 8 9
9 9 9 9 9 8 7 7 6 6 6 5 4 4 5 4 3 3 3 2 3 3 5 1 2 2 2 4 2 4 8 9 11 21 21 20 21 19 22 17 12 13 11
8 9 7 8 7 6 6 7 7 6 6 5 4 5 3 1 3 4 3 5 4 5 4 5 2 2 1 3 6 8 6 7 10 23 26 25 23 22 22 15 10 12 11
7 7 7 6 6 6 6 6 6 6 5 5 4 4 5 4 4 3 4 4 3 3 3 3 3 1 1 4 5 3 7 7 6 18 20 23 24 25 21 19 15 14 13
7 7 7 7 7 7 7 6 6 6 5 5 5 5 5 5 3 3 2 3 2 2 2 3 3 3 2 2 5 8 5 3 9 9 12 15 21 21 19 18 16 15 15
7 8 8 7 7 6 4 6 6 6 5 4 3 2 1 4 2 3 1 3 4 3 3 3 3 2 3 5 10 7 5 6 2 2 7 8 10 9 10 15 14 16 15
7 7 6 7 6 4 9 8 6 4 4 3 2 1 4 3 3 5 6 7 6 4 5 4 3 4 6 5 7 9 8 8 6 3 6 6 6 8 9 7 15 17 16
7 6 6 6 6 5 9 9 8 4 4 5 5 4 3 3 4 2 4 6 6 8 9 5 6 7 7 10 10 10 11 15 10 8 10 8 6 7 6 8 19 18 17
7 6 6 6 6 4 7 7 5 2 3 2 3 3 5 6 4 4 4 5 5 6 6 5 8 6 7 10 14 16 13 5 5 8 7 5 7 6 6 6 20 19 17
5 4 4 5 6 4 4 4 2 1 2 3 2 3 4 5 5 6 4 6 6 6 5 11 13 11 10 14 14 8 8 9 5 8 4 4 7 5 6 7 9 20 17
5 4 6 5 3 5 5 3 3 1 2 2 3 4 7 7 7 8 5 5 6 6 3 4 4 7 11 13 22 17 13 13 7 5 6 5 11 6 4 2 5 7 7
Wind_Direction
185 166 168 171 175 173 188 186 194 202 216 228 231 218 192 314 110 151 173 186 202 198 181 179 192 182 188 182 183 171 175 168 166 167 154 139 123 127 132 131 128 111 89
181 180 178 178 186 184 187 190 199 193 216 219 231 203 187 293 307 158 171 204 202 208 198 194 190 191 192 193 182 177 182 182 176 162 158 158 151 158 142 122 111 105 80
187 189 171 183 187 189 186 196 201 185 198 201 203 198 191 214 235 201 180 189 193 211 216 206 194 194 196 197 192 187 188 176 174 166 166 155 167 159 145 134 118 97 94
193 192 187 182 191 184 188 191 201 201 199 185 183 204 198 201 223 236 163 186 198 202 220 223 213 202 197 199 197 197 190 181 177 169 169 173 164 147 142 135 130 126 126
202 186 195 197 172 185 181 180 185 157 166 166 189 202 211 206 210 190 195 166 201 205 203 211 208 206 205 202 195 201 195 188 182 175 175 171 171 169 154 147 142 133 126
197 196 187 189 187 175 176 173 158 171 166 181 176 136 91 107 153 170 213 115 200 224 223 217 212 221 209 205 197 201 197 192 190 189 182 176 169 163 162 156 143 132 131
195 198 195 178 170 167 178 177 162 178 206 160 114 28 358 31 331 345 4 281 104 29 352 250 221 205 214 205 202 210 207 198 198 197 181 176 174 171 160 141 135 130 134
191 196 188 183 172 162 169 175 157 162 158 176 131 113 262 314 270 251 291 308 300 54 325 350 307 219 206 209 212 204 206 205 199 189 181 176 170 157 154 154 145 137 153
187 193 185 179 171 173 175 188 174 157 167 189 171 140 131 222 30 15 264 274 288 297 291 291 282 290 270 232 213 210 208 202 203 187 180 174 164 162 156 151 151 130 144
181 181 179 172 174 171 177 175 182 160 130 166 103 133 83 136 182 294 271 268 249 242 233 250 255 261 262 246 253 252 218 193 190 198 177 175 166 149 144 120 136 124 88
170 169 165 164 174 172 165 167 171 168 163 164 168 152 86 86 65 171 268 258 287 233 244 247 234 242 256 251 222 208 135 122 148 181 176 174 155 154 140 133 124 110 111
150 150 147 171 194 170 176 168 170 172 175 148 162 168 158 168 182 165 221 243 235 255 230 235 256 262 262 264 250 216 193 158 145 157 171 176 159 145 150 136 131 121 106
142 174 163 183 183 172 166 138 152 153 173 172 162 194 175 177 154 171 159 209 229 247 292 240 231 222 233 222 236 210 178 164 164 169 175 163 158 153 140 143 139 128 120
156 151 148 151 141 153 141 138 141 156 139 132 159 174 164 187 172 179 180 160 239 254 263 254 241 230 209 217 239 227 187 161 158 165 169 162 146 137 131 123 116 119 119
158 160 159 155 166 158 150 158 168 162 158 154 177 181 175 191 196 192 175 178 193 253 240 226 270 300 228 170 217 164 181 173 149 147 143 139 135 132 129 124 120 126 129
158 158 155 153 153 158 141 150 154 153 143 150 144 149 165 181 190 191 188 192 208 257 275 146 209 202 162 155 164 143 135 143 127 127 128 124 123 120 114 113 118 144 142
154 155 157 151 153 154 158 150 150 148 153 154 166 173 187 170 185 210 207 207 214 208 257 182 152 183 164 156 132 108 129 124 126 124 121 127 131 131 117 122 147 151 142
146 152 155 158 152 152 139 141 149 158 162 172 156 153 162 184 216 199 204 216 216 213 218 231 143 121 140 175 148 142 145 145 149 149 146 142 135 125 116 130 161 140 141
137 140 145 158 144 139 130 126 126 133 140 142 144 154 168 155 218 195 210 221 215 225 195 153 137 146 136 169 146 135 138 134 138 144 138 136 133 121 135 153 164 148 145
125 117 111 104 105 106 112 123 131 142 152 156 168 180 193 198 221 253 264 260 255 218 163 143 164 146 136 161 158 154 143 144 142 140 148 142 122 132 149 158 159 154 147
106 110 108 105 113 120 133 127 142 160 170 166 172 203 237 223 236 255 256 256 239 221 184 173 163 149 156 166 188 174 169 137 120 121 149 127 128 146 157 162 162 159 154
113 112 122 128 127 117 134 123 122 145 149 158 203 256 244 300 280 272 269 239 227 218 207 189 174 193 197 195 176 177 159 156 189 222 154 127 143 147 156 160 165 159 157
120 127 128 130 143 151 159 155 159 163 173 186 211 219 266 260 260 260 288 273 251 237 227 209 204 201 175 191 182 183 187 195 186 156 153 138 145 147 158 163 169 164 161
136 139 140 138 128 123 135 126 136 179 225 246 241 262 265 269 250 229 263 256 243 240 225 221 228 234 216 189 189 191 192 162 104 149 158 135 157 156 158 166 173 170 167
104 105 111 104 89 54 85 173 125 352 297 271 238 216 228 256 259 244 227 251 265 265 229 249 245 230 207 188 181 151 164 161 154 174 208 134 150 120 163 171 174 175 168
96 74 62 69 153 209 231 228 226 144 244 254 236 239 244 243 252 227 229 233 258 265 245 272 275 257 223 191 173 184 174 179 159 156 200 137 141 140 143 163 165 169 167